Location: Madrid
(40.4000°N, 3.6830°W)
Time: 00:56:26
(UTC+02:00)

ISS - Pass Details

Date: 17 July 2019
Orbit: 409 x 418 km, 51.6° (Epoch: 23 July)

Event Time Altitude Azimuth Distance (km) Brightness Sun altitude
Rises 02:15:22 0° 295° (WNW) 2,348 0.4 -28.3°
Reaches altitude 10° 02:18:27 10° 326° (NNW) 1,484 -0.3 -28.3°
Maximum altitude 02:19:58 13° 354° (N) 1,338 -0.3 -28.3°
Drops below altitude 10° 02:21:30 10° 21° (NNE) 1,483 -0.2 -28.3°
Sets 02:24:35 0° 52° (NE) 2,343 0.5 -28.3°
